Location: Central Coast NSW, Australia
(33.2407°S, 151.4316°E)
Time: 20:17:24
(UTC+11:00)

ISS - Visible Passes

Search period start: 14 October 2019 00:00
Search period end: 24 October 2019 00:00
Orbit: 411 x 421 km, 51.6° (Epoch: 14 October)

Date Brightness Start Highest point End Pass type
(mag) Time Alt. Az. Time Alt. Az. Time Alt. Az.
14 Oct -0.6 04:41:46 10° S 04:43:29 13° SSE 04:45:11 10° ESE visible
15 Oct -2.9 05:28:38 10° SW 05:32:01 54° SE 05:35:22 10° ENE visible
16 Oct -1.7 04:40:19 10° SSW 04:43:23 30° SE 04:46:27 10° E visible
17 Oct -1.0 03:53:58 17° SSE 03:54:41 18° SSE 03:57:10 10° E visible
17 Oct -3.3 05:28:18 10° WSW 05:31:33 40° NW 05:34:45 10° NNE visible
17 Oct -3.1 20:31:00 10° NNW 20:33:33 39° N 20:33:33 39° N visible
18 Oct -3.9 04:41:51 38° SW 04:43:03 85° NW 04:46:26 10° NE visible
18 Oct -2.5 19:43:03 10° N 19:45:47 23° NE 19:48:33 10° ESE visible
18 Oct -1.6 21:19:30 10° W 21:22:14 26° SW 21:22:14 26° SW visible
19 Oct -0.9 03:57:15 14° ENE 03:57:15 14° ENE 03:57:47 10° ENE visible
19 Oct -1.8 05:30:18 12° WNW 05:30:51 12° NW 05:32:18 10° NNW visible
19 Oct -2.7 20:30:31 10° WNW 20:33:46 47° SW 20:37:04 10° SE visible
20 Oct -3.8 19:41:50 10° NW 19:45:12 87° NE 19:48:36 10° SE visible
20 Oct -0.5 21:20:59 10° SW 21:22:21 12° SSW 21:23:43 10° S visible
21 Oct -0.8 20:31:09 10° WSW 20:33:33 18° SSW 20:35:59 10° SSE visible
22 Oct -1.6 19:41:51 10° W 19:44:50 29° SW 19:47:51 10° SSE visible
